Content
SEND FEEDBACK

Daily
Averages
Monthly
Summary
Brazil

FLORIANOPOLIS, SANTA CATARINA


Home > South America > Brazil > Santa Catarina
Elevation: 16 feet     Latitude: 27 40S     Longitude: 048 33W

WEATHER
 
SELECT A DAY
Number of Records: 184,813;   Date Range: 6/30/96 - 9/29/14
 
SHARE

PRINT THIS DATA

[ ← Previous Day ]
WEATHER ALMANAC - MARCH 19, 2013
[ Next Day → ]
[ °C ]   °F
Weather ElementAverageHighLow
Temperature68.2 °F71.6 °F (11:00 am)65 °F (3:00 am)
Dewpoint64.9 °F67 °F (9:00 pm)62.6 °F (1:00 am)
Humidity89.1 %96 % (9:00 pm)78 % (8:00 am)
Barometer30.13 in30.18 in (2:00 am)30.09 in (4:00 pm)
Wind Speed5.3 mph11.5 mph (5:00 pm)
Weather ElementAverage
Visibility5.3 mi
Wind DirectionSSE (165.3 °)

Weather ElementTotal
Precipitation---
Cooling Degree Days3.3 (Base 65)
Growing Degree Days18.3 (Base 50)
Averaged from 30 records on March 19, 2013
WEATHER CONDITIONS BREAKOUT
WIND DIRECTION BREAKOUT
WEATHER BY HOUR - MARCH 19, 2013
[ °C ]   °F
Local TimeTemperatureDewpointHumidityBarometerVisibilityWind DirectionWind SpeedGust SpeedPrecipitationEventsConditions
1:00 AM66.2 °F62.6 °F88 %30.15 in5.0 miSSW (210°)4.6 mphRainLight Rain
2:00 AM66.2 °F62.6 °F88 %30.18 in5.0 miSSW (200°)4.6 mphRainLight Rain
3:00 AM65.0 °F64.0 °F95 %30.14 in9.0 miSSW (200°)4.6 mphRainLight Rain
3:00 AM66.2 °F64.4 °F94 %30.12 in6.2 miSSW (200°)4.6 mphRainLight Rain
4:00 AM66.2 °F64.4 °F94 %30.12 in5.6 miSSW (210°)4.6 mphRainLight Rain
5:00 AM66.2 °F64.4 °F94 %30.12 in6.2 miSSW (210°)1.2 mphMostly Cloudy
6:00 AM66.2 °F64.4 °F94 %30.12 in6.2 miCalmMostly Cloudy
6:35 AM66.2 °F64.4 °F94 %30.12 in6.2 miCalmMostly Cloudy
7:00 AM68.0 °F64.4 °F88 %30.12 in6.2 miSW (220°)2.3 mphMostly Cloudy
8:00 AM69.8 °F62.6 °F78 %30.15 in6.2 miNorth (360°)2.3 mphMostly Cloudy
9:00 AM68.0 °F65.0 °F88 %30.18 in9.0 miSW (230°)6.9 mphRainLight Rain
9:00 AM68.0 °F66.2 °F94 %30.18 in6.2 miSW (230°)6.9 mphRainLight Rain
10:00 AM68.0 °F64.4 °F88 %30.18 in5.6 miEast (80°)8.1 mphRainLight Rain
11:00 AM71.6 °F64.4 °F78 %30.18 in5.6 miSSE (150°)8.1 mphRainLight Rain
11:23 AM68.0 °F64.4 °F88 %30.18 in2.5 miESE (120°)5.8 mphRainLight Rain
12:00 PM68.0 °F66.2 °F94 %30.18 in2.5 miSE (130°)5.8 mphRainLight Rain
1:00 PM69.8 °F66.2 °F88 %30.15 in5.6 miSouth (190°)3.5 mphRainLight Rain
2:00 PM71.6 °F64.4 °F78 %30.12 in6.2 miSSW (200°)3.5 mphRainLight Rain
3:00 PM70.0 °F65.0 °F79 %30.13 in9.0 miWNW (290°)6.9 mphRainLight Rain
3:00 PM69.8 °F64.4 °F83 %30.12 in6.2 miWNW (290°)6.9 mphMostly Cloudy
4:00 PM71.6 °F66.2 °F83 %30.09 in6.2 miSSE (160°)9.2 mphMostly Cloudy
4:30 PM69.8 °F64.4 °F83 %30.09 in2.2 miSSE (150°)5.8 mphRainLight Rain
5:00 PM69.8 °F66.2 °F88 %30.09 in5.0 miEast (90°)11.5 mphRainLight Rain
6:00 PM66.2 °F64.4 °F94 %30.09 in4.3 miCalmRainLight Rain
7:00 PM68.0 °F66.2 °F94 %30.12 in2.5 miNW (320°)3.5 mphRainLight Rain
8:00 PM68.0 °F66.2 °F94 %30.12 in2.5 miWSW (250°)2.3 mphRainLight Rain
9:00 PM68.0 °F67.0 °F96 %30.13 in2.0 miESE (120°)9.2 mphRainRain
9:00 PM68.0 °F66.2 °F94 %30.12 in5.0 miENE (60°)9.2 mphRainLight Rain
10:00 PM68.0 °F66.2 °F94 %30.12 in5.0 miENE (60°)9.2 mphRainLight Rain
11:00 PM69.8 °F66.2 °F88 %30.09 in5.0 miNNE (30°)6.9 mphRainLight Rain
Hourly data recorded from SBFL, located miles away from Florianopolis, Santa Catarina







STORIES FROM OUR PARTNERS